Location: Canyam�s
(41.5996°N, 2.4450°E)
Time: 02:53:06
(UTC+00:00)

Hubble Space Telescope - Pass Details

Date: 15 August 2020
Orbit: 536 x 540 km, 28.5° (Epoch: 22 September)

Event Time Altitude Azimuth Distance (km) Brightness Sun altitude
Exits shadow 03:22:47 13° 171° (S) 1,606 2.9 -16.7°
Drops below altitude 10° 03:24:17 10° 150° (SSE) 1,780 3.3 -16.5°
Sets 03:27:37 0° 122° (ESE) 2,672 4.6 -15.9°
